Regional Weather Roundup
Issued by NWS

Home | Current Version | Previous Version | Text Only | Print | Product List | Glossary Off
Versions: 1 2 3 4 5 6 7 8 9 10 11 12 13 14 15 16 17 18 19 20 21 22 23 24 25 26 27 28 29 30 31 32 33 34 35 36 37 38 39 40 41 42 43 44 45 46 47 48 49 50

000
ASUS43 KLOT 060612
RWRIL

ILLINOIS REGIONAL WEATHER ROUNDUP
NATIONAL WEATHER SERVICE CHICAGO/ROMEOVILLE IL
1200 AM CST TUE DEC 06 2016

NOTE: "FAIR" INDICATES FEW OR NO CLOUDS BELOW 12,000 FEET WITH NO
SIGNIFICANT WEATHER AND/OR OBSTRUCTIONS TO VISIBILITY.

* THESE STATIONS ARE NOT UNDER NWS QUALITY CONTROL. THEY ALSO MAY NOT
  REPORT WEATHER SUCH AS PRECIPITATION OR FOG.

ILZ001-002-007-009-015-016-024-060700-
NORTHWEST ILLINOIS

CITY           SKY/WX    TMP DP  RH WIND       PRES   REMARKS
MOLINE         CLOUDY    35  32  88 SE13      29.84F WCI  26
6HR MIN TEMP:  34; 6HR MAX TEMP:  35;

STERLING*      MIX PCPN  32  32 100 E9        29.88F VSB 1   WCI  24
SAVANNA*       CLOUDY    32  31  96 SE5       29.88F FOG     WCI  27
$$

ILZ003-004-008-010-011-017-018-060700-
NORTH CENTRAL ILLINOIS

CITY           SKY/WX    TMP DP  RH WIND       PRES   REMARKS
ROCKFORD       FOG       31  30  96 SE9       29.92S VSB 1/2 WCI  23
6HR MIN TEMP:  30; 6HR MAX TEMP:  32;

FREEPORT*      FOG       31  30  98 SE7       29.90F VSB 3/4 WCI  24
ROCHELLE*      FOG       31  31 100 SE9       29.90F VSB 1/2 WCI  23
DE KALB*       FOG       32  32  99 SE7       29.89F VSB 1/2 WCI  26
$$

ILZ005-006-012>014-019>023-060700-
NORTHEAST ILLINOIS

CITY           SKY/WX    TMP DP  RH WIND       PRES   REMARKS
CHICAGO-OHARE  CLOUDY    34  32  92 SE9       29.90F FOG     WCI  27
6HR MIN TEMP:  31; 6HR MAX TEMP:  34;

CHICAGO-MIDWAY PTCLDY    35  31  85 SE7       29.91F FOG     WCI  29
6HR MIN TEMP:  33; 6HR MAX TEMP:  35;

AURORA         CLOUDY    34  32  92 SE10      29.91S FOG     WCI  26
6HR MIN TEMP:  32; 6HR MAX TEMP:  34;

LANSING*       CLEAR     30  30 100 E5        29.92F FOG     WCI  25
JOLIET*        CLEAR     31  31  98 E6        29.91F FOG     WCI  26
WAUKEGAN       CLOUDY    36  33  89 SE7       29.90F WCI  30
6HR MIN TEMP:  32; 6HR MAX TEMP:  36;

DUPAGE AIRPORT FOG       33  31  92 SE6       29.90F VSB 1   WCI  28
6HR MIN TEMP:  31; 6HR MAX TEMP:  33;

KANKAKEE*      CLOUDY    28  27  96 CALM      29.90F FOG
WHEELING       CLOUDY    34  32  92 S7        29.93F FOG     WCI  28
6HR MIN TEMP:  32; 6HR MAX TEMP:  34;

MORRIS*        CLOUDY    32  31  96 E10       29.89F FOG     WCI  24
ROMEOVILLE*    CLOUDY    32  32 100 E9        29.90F FOG     WCI  24
NORTHERLY ISL    N/A     37  34  89 SE12        N/A  WCI  29
$$

LMZ740>746-060700-
SOUTHERN LAKE MICHIGAN

STATION/POSITION SKY/WX   TEMP    WIND        PRES    VSBY  WAVE
                          AIR SEA DIR/SP/G                  HT/PER
                          (F)     (DEG/KT/KT) (MB)    (MI)  (FT/S)
HARRISON CRIB              39     140/ 17/ 20   N/A
BURNHAM HARBOR             37     110/ 14/ 14   N/A
CALUMET HARBOR             36     110/ 10/ 13 1013.0F
BURNS HARBOR               34     140/ 15/ 22 1013.9F
$$

ILZ025>027-034>036-040-047-049-050-058-095>099-060700-
WEST-CENTRAL ILLINOIS

CITY           SKY/WX    TMP DP  RH WIND       PRES   REMARKS
QUINCY         CLOUDY    35  34  96 SE12      29.80F FOG     WCI  27
GALESBURG*     CLOUDY    34  33  98 E5        29.84F FOG     WCI  30
MACOMB*        CLOUDY    35  34  98 E7        29.85F FOG     WCI  29
JACKSONVILLE*  CLOUDY    32  32  99 NE6       29.82F FOG     WCI  26
PITTSFIELD*    CLOUDY    36  35  94 SE7       29.81F WCI  31
$$

ILZ028>032-037-038-041>044-048-051>054-059>061-060700-
CENTRAL ILLINOIS

CITY           SKY/WX    TMP DP  RH WIND       PRES   REMARKS
PONTIAC        CLOUDY    31  31 100 E10       29.88F FOG     WCI  22
BLOOMINGTON    MOCLDY    29  29 100 E10       29.84F WCI  20
DECATUR        CLOUDY    31  29  92 NE8       29.83F WCI  23
PEORIA         CLOUDY    33  33 100 E7        29.85F FOG     WCI  27
6HR MIN TEMP:  33; 6HR MAX TEMP:  37;

LACON*         FOG       32  32 100 E7        29.87F VSB 1   WCI  26
LINCOLN*       PTCLDY    33  32  99 E5        29.84F FOG     WCI  28
SPRINGFIELD    PTCLDY    33  31  92 NE7       29.82F FOG     WCI  27
6HR MIN TEMP:  31; 6HR MAX TEMP:  37;

TAYLORVILLE    CLOUDY    34  33  96 E6        29.81F WCI  29
6HR MIN TEMP:  33; 6HR MAX TEMP:  36;

$$

ILZ033-039-045-046-055>057-062-063-060700-
EAST-CENTRAL ILLINOIS

CITY           SKY/WX    TMP DP  RH WIND       PRES   REMARKS
CHAMPAIGN      CLOUDY    34  31  88 NE9       29.84F WCI  27
RANTOUL*       CLOUDY    33  32  97 E7        29.85F FOG     WCI  26
MATTOON        CLOUDY    34  32  92 E3        29.82F
PARIS*         CLOUDY    34  33  95 NE5       29.85F WCI  30
$$

ILZ079-100>102-060700-
SOUTHWEST ILLINOIS

CITY           SKY/WX    TMP DP  RH WIND       PRES   REMARKS
ALTON          CLOUDY    35  34  94 E6        29.79F WCI  30
BELLEVILLE     CLOUDY    38  38  99 E3        29.79F
CAHOKIA*       CLOUDY    40  35  83 CALM      29.80F
SPARTA*        CLOUDY    38  36  91 CALM      29.79F
$$

ILZ064>066-069>071-074>076-080>082-084>086-088>090-092>094-060700-
SOUTH-CENTRAL ILLINOIS

CITY           SKY/WX    TMP DP  RH WIND       PRES   REMARKS
CARBONDALE     LGT RAIN  40  38  93 E6        29.77F
6HR MIN TEMP:  40; 6HR MAX TEMP:  41; 6HR PCP: TRACE;

CAIRO*         DRIZZLE   40  39  95 NE7       29.75F
EFFINGHAM*     CLOUDY    37  36  96 NE3       29.83F
CENTRALIA*     CLOUDY    38  37  93 NE8       29.77F WCI  32
SALEM*         CLOUDY    39  35  84 E6        29.78F WCI  35
METROPOLIS*    RAIN      41  38  91 CALM      29.76F
$$

ILZ067-068-072-073-078-083-087-091-060700-
SOUTHEAST ILLINOIS

CITY           SKY/WX    TMP DP  RH WIND       PRES   REMARKS
LAWRENCEVILLE  CLOUDY    39  35  86 NE7       29.82F WCI  34
FLORA*         CLOUDY    39  36  89 NE7       29.81F WCI  34
FAIRFIELD*     CLOUDY    38  36  92 N3        29.79F
HARRISBURG*    LGT RAIN  41  38  88 NE3       29.79F
ROBINSON*      CLOUDY    37  34  92 NE6       29.83F WCI  32
CARMI*         CLOUDY    40  38  89 NE5       29.78F
$$

ABBREVIATIONS USED IN REMARKS
   TC - TEMPERATURE IN CELSIUS
  WCI - WIND CHILL INDEX
   HX - HEAT INDEX
  VSB - VISIBILITY
$$




USA.gov is the U.S. government's official web portal to all federal, state and local government web resources and services.